Regional Weather Roundup
Issued by NWS Sterling, VA

Home | Current Version | Previous Version | Graphics & Text | Print | Product List | Glossary On
Versions: 1 2 3 4 5 6 7 8 9 10 11 12 13 14 15 16 17 18 19 20 21 22 23 24 25 26 27 28 29 30 31 32 33 34 35 36 37 38 39 40 41 42 43 44 45 46 47 48 49 50
000
ASUS41 KLWX 200810
RWRLWX

REGIONAL WEATHER ROUNDUP
NATIONAL WEATHER SERVICE BALTIMORE MD/WASHINGTON DC
400 AM EDT SAT SEP 20 2014

Note: "FAIR" indicates few or no clouds below 12,000 feet
with no significant weather and/or obstructions to visibility.
 TC=TEMPERATURE CELSIUS

 * =Non NWS site. Station does not report precipitation (e.g. rain,
    snow, etc.), thunder, or fog.

DCZ001-MDZ009-015-VAZ040>042-051-053>054-200900-
WASHINGTON METRO

CITY           SKY/WX    TMP DP  RH WIND       PRES   REMARKS
WASHINGTON NAT PTCLDY    65  60  84 NE5       30.27S
DULLES         CLOUDY    62  60  93 SE5       30.26S
ANDREWS AFB    PTCLDY    57  56  99 N2        30.26S
QUANTICO       MOCLDY    65  61  87 VRB6      30.26F
COLLEGE PARK*  CLOUDY    61  61 100 CALM      30.26F
LEESBURG*      CLOUDY    64  63  94 S5        30.27S
MANASSAS*      PTCLDY    61  61 100 CALM      30.26S
GAITHERSBURG*  MOCLDY    61  59  94 SE8       30.30F

$$

MDZ006>007-011-014-200900-
BALTIMORE METRO

CITY           SKY/WX    TMP DP  RH WIND       PRES   REMARKS
BWI AIRPORT    CLOUDY    63  60  90 E3        30.26F
MD SCIENCE CTR   N/A     65  59  81 MISG      30.27F
MARTIN STATE   PTCLDY    61  61 100 CALM      30.28F
ANNAPOLIS        N/A     65  61  87 MISG      30.26S
FORT MEADE*    CLOUDY    59  55  88 CALM      30.29S

$$

MDZ012-015-019>023-200900-
MARYLAND EASTERN SHORE

CITY           SKY/WX    TMP DP  RH WIND       PRES   REMARKS
OCEAN CITY     CLEAR     69  60  73 SE12G18   30.24F
SALISBURY      CLEAR     60  56  86 CALM      30.24F
BAY BRIDGE AP*   N/A     63  59  88 E3        30.26S
CAMBRIDGE*     PTCLDY    59  55  88 CALM      30.25S
EASTON*        PTCLDY    61  61 100 CALM      30.29F

$$

MDZ017>025-200900-
SOUTHERN MARYLAND

CITY           SKY/WX    TMP DP  RH WIND       PRES   REMARKS
PATUXENT RIVER MOCLDY    68  61  78 SE8       30.24F
ST INIGOES     PTCLDY    60  56  86 NE3       30.24S
LEONARDTOWN*   MOCLDY    59  57  94 CALM      30.26F VSB 1/2

$$

MDZ003>005-200900-
NORTH CENTRAL MARYLAND

CITY           SKY/WX    TMP DP  RH WIND       PRES   REMARKS
FREDERICK*     CLOUDY    64  61  88 CALM      30.28F
HAGERSTOWN APT CLOUDY    64  58  80 S9        30.26S
WESTMINSTER*   MOCLDY    61  57  88 SE7       30.27F

$$

MDZ501>502-200900-
WESTERN MARYLAND

CITY           SKY/WX    TMP DP  RH WIND       PRES   REMARKS
OAKLAND*       PTCLDY    54 N/A N/A SE12      30.23S
CUMBERLAND*    CLOUDY    63  57  82 S3        30.26S

$$

VAZ025>031-200900-
SHENANDOAH VALLEY

CITY           SKY/WX    TMP DP  RH WIND       PRES   REMARKS
WINCHESTER*    CLOUDY    64  59  82 SE6       30.25S
STAUNTON*      CLOUDY    61  56  83 S3        30.28S

$$

WVZ021-048>050-054>055-200900-
EASTERN WEST VIRGINIA PANHANDLE

CITY           SKY/WX    TMP DP  RH WIND       PRES   REMARKS
MARTINSBURG    CLOUDY    65  58  78 SE10      30.25F
PETERSBURG*    CLOUDY    62  57  83 S3        30.23S

$$

VAZ036>039-050-200900-
CENTRAL FOOTHILLS

CITY           SKY/WX    TMP DP  RH WIND       PRES   REMARKS
CHARLOTTESVILL CLOUDY    62  59  90 CALM      30.26S
ORANGE*        CLOUDY    59  55  88 CALM      30.27S

$$

VAZ055>057-200900-
NORTH AND CENTRAL PIEDMONT

CITY           SKY/WX    TMP DP  RH WIND       PRES   REMARKS
FREDERICKSBRG* PTCLDY    58  58 100 CALM      30.25S
STAFFORD*      FOG       57  57 100 CALM      30.29S VSB 1/2

$$

NCZ024-NYZ072-PAZ021-071-VAZ022-071-200900-
OTHER REGIONAL OBSERVATIONS

CITY           SKY/WX    TMP DP  RH WIND       PRES   REMARKS
NEW YORK CITY  MOCLDY    58  50  75 CALM      30.34F
PHILADELPHIA   CLOUDY    58  54  86 CALM      30.30S
PITTSBURGH     MOCLDY    59  54  83 SE5       30.13F
ROANOKE        CLOUDY    62  58  86 CALM      30.27F
RICHMOND       PTCLDY    60  57  89 N5        30.23F
RALEIGH        PTCLDY    61  56  83 NE5       30.22S

$$

ANZ530>537-200900-
MARINE OBSERVATIONS

STATION/POSITION TIME  TEMP    WIND        PRES
                       AIR SEA DIR/SP/G
                 (UTC) (F)     (DEG/KT/KT) (MB)
THOMAS PT LIGHT  0800   67 74  140/  8/  9 1025.6S
BALT KEY BRIDGE  0800   65      70/  4/  5 1024.6F
COVE POINT       0800   66     130/  7/  9 1024.1F
LEWISETTA        0800   68 73  110/  3/  3 1023.5S
SOLOMONS ISLAND  0800      75                N/A
PINEY POINT      0800          120/  9/ 13   N/A

$$




USA.gov is the U.S. government's official web portal to all federal, state and local government web resources and services.